Year,Month,Day,Hour,Minute,Value (Times are PST for temperature in C)
2011,03,03,00,00,0.00
2011,03,03,00,01,0.00
2011,03,03,00,02,0.10
2011,03,03,00,03,0.10
2011,03,03,00,04,0.10
2011,03,03,00,05,0.10
2011,03,03,00,06,0.10
2011,03,03,00,07,0.10
2011,03,03,00,08,0.10
2011,03,03,00,09,0.10
2011,03,03,00,10,0.10
2011,03,03,00,11,0.10
2011,03,03,00,12,0.10
2011,03,03,00,13,0.10
2011,03,03,00,14,0.10
2011,03,03,00,15,0.20
2011,03,03,00,16,0.20
2011,03,03,00,17,0.20
2011,03,03,00,18,0.20
2011,03,03,00,19,0.20
2011,03,03,00,20,0.20
2011,03,03,00,21,0.30
2011,03,03,00,22,0.30
2011,03,03,00,23,0.30
2011,03,03,00,24,0.30
2011,03,03,00,25,0.40
2011,03,03,00,26,0.40
2011,03,03,00,27,0.40
2011,03,03,00,28,0.40
2011,03,03,00,29,0.50
2011,03,03,00,30,0.50
2011,03,03,00,31,0.60
2011,03,03,00,32,0.60
2011,03,03,00,33,0.70
2011,03,03,00,34,0.70
2011,03,03,00,35,0.70
2011,03,03,00,36,0.80
2011,03,03,00,37,0.80
2011,03,03,00,38,0.90
2011,03,03,00,39,0.90
2011,03,03,00,40,1.00
2011,03,03,00,41,1.00
2011,03,03,00,42,1.10
2011,03,03,00,43,1.20
2011,03,03,00,44,1.20
2011,03,03,00,45,1.30
2011,03,03,00,46,1.30
2011,03,03,00,47,1.30
2011,03,03,00,48,1.30
2011,03,03,00,49,1.40
2011,03,03,00,50,1.50
2011,03,03,00,51,1.50
2011,03,03,00,52,1.60
2011,03,03,00,53,1.60
2011,03,03,00,54,1.70
2011,03,03,00,55,1.70
2011,03,03,00,56,1.70
2011,03,03,00,57,1.80
2011,03,03,00,58,1.80
2011,03,03,00,59,1.80
2011,03,03,01,00,1.80
2011,03,03,01,01,1.90
2011,03,03,01,02,1.90
2011,03,03,01,03,1.90
2011,03,03,01,04,2.00
2011,03,03,01,05,2.10
2011,03,03,01,06,2.10
2011,03,03,01,07,2.10
2011,03,03,01,08,2.20
2011,03,03,01,09,2.20
2011,03,03,01,10,2.20
2011,03,03,01,11,2.30
2011,03,03,01,12,2.30
2011,03,03,01,13,2.30
2011,03,03,01,14,2.40
2011,03,03,01,15,2.50
2011,03,03,01,16,2.50
2011,03,03,01,17,2.60
2011,03,03,01,18,2.60
2011,03,03,01,19,2.70
2011,03,03,01,20,2.70
2011,03,03,01,21,2.80
2011,03,03,01,22,2.80
2011,03,03,01,23,2.90
2011,03,03,01,24,2.90
2011,03,03,01,25,2.90
2011,03,03,01,26,2.90
2011,03,03,01,27,2.90
2011,03,03,01,28,2.90
2011,03,03,01,29,2.90
2011,03,03,01,30,2.90
2011,03,03,01,31,2.80
2011,03,03,01,32,2.80
2011,03,03,01,33,2.80
2011,03,03,01,34,2.80
2011,03,03,01,35,2.80
2011,03,03,01,36,2.80
2011,03,03,01,37,2.80
2011,03,03,01,38,2.80
2011,03,03,01,39,2.90
2011,03,03,01,40,2.90
2011,03,03,01,41,3.00
2011,03,03,01,42,3.00
2011,03,03,01,43,3.10
2011,03,03,01,44,3.10
2011,03,03,01,45,3.20
2011,03,03,01,46,3.30
2011,03,03,01,47,3.30
2011,03,03,01,48,3.40
2011,03,03,01,49,3.40
2011,03,03,01,50,3.40
2011,03,03,01,51,3.50
2011,03,03,01,52,3.50
2011,03,03,01,53,3.50
2011,03,03,01,54,3.60
2011,03,03,01,55,3.60
2011,03,03,01,56,3.60
2011,03,03,01,57,3.70
2011,03,03,01,58,3.70
2011,03,03,01,59,3.80
2011,03,03,02,00,3.80
2011,03,03,02,01,3.80
2011,03,03,02,02,3.80
2011,03,03,02,03,3.80
2011,03,03,02,04,3.90
2011,03,03,02,05,3.90
2011,03,03,02,06,3.90
2011,03,03,02,07,3.90
2011,03,03,02,08,3.90
2011,03,03,02,09,3.90
2011,03,03,02,10,3.90
2011,03,03,02,11,3.90
2011,03,03,02,12,3.90
2011,03,03,02,13,3.90
2011,03,03,02,14,3.90
2011,03,03,02,15,3.90
2011,03,03,02,16,4.00
2011,03,03,02,17,4.10
2011,03,03,02,18,4.10
2011,03,03,02,19,4.10
2011,03,03,02,20,4.10
2011,03,03,02,21,4.10
2011,03,03,02,22,4.20
2011,03,03,02,23,4.20
2011,03,03,02,24,4.30
2011,03,03,02,25,4.40
2011,03,03,02,26,4.40
2011,03,03,02,27,4.40
2011,03,03,02,28,4.40
2011,03,03,02,29,4.50
2011,03,03,02,30,4.50
2011,03,03,02,31,4.60
2011,03,03,02,32,4.70
2011,03,03,02,33,4.70
2011,03,03,02,34,4.70
2011,03,03,02,35,4.80
2011,03,03,02,36,4.90
2011,03,03,02,37,4.90
2011,03,03,02,38,5.00
2011,03,03,02,39,5.10
2011,03,03,02,40,5.10
2011,03,03,02,41,5.10
2011,03,03,02,42,5.20
2011,03,03,02,43,5.30
2011,03,03,02,44,5.40
2011,03,03,02,45,5.40
2011,03,03,02,46,5.40
2011,03,03,02,47,5.50
2011,03,03,02,48,5.60
2011,03,03,02,49,5.60
2011,03,03,02,50,5.70
2011,03,03,02,51,5.80
2011,03,03,02,52,5.80
2011,03,03,02,53,5.80
2011,03,03,02,54,5.80
2011,03,03,02,55,5.80
2011,03,03,02,56,5.80
2011,03,03,02,57,5.80
2011,03,03,02,58,5.90
2011,03,03,02,59,5.90
2011,03,03,03,00,5.90
2011,03,03,03,01,6.00
2011,03,03,03,02,6.00
2011,03,03,03,03,6.00
2011,03,03,10,34,6.10
2011,03,03,10,35,6.10
2011,03,03,10,36,6.20
2011,03,03,10,37,6.20
2011,03,03,10,38,6.20
2011,03,03,10,39,6.20
2011,03,03,10,40,6.20
2011,03,03,10,41,6.20
2011,03,03,10,42,6.30
2011,03,03,10,43,6.30
2011,03,03,10,44,6.30
2011,03,03,10,45,6.30
2011,03,03,10,46,6.30
2011,03,03,10,47,6.30
2011,03,03,10,48,6.40
2011,03,03,10,49,6.40
2011,03,03,10,50,6.40
2011,03,03,10,51,6.50
2011,03,03,10,52,6.50
2011,03,03,10,53,6.50
2011,03,03,10,54,6.60
2011,03,03,10,55,6.60
2011,03,03,10,56,6.70
2011,03,03,10,57,6.70
2011,03,03,10,58,6.60
2011,03,03,10,59,6.60
2011,03,03,11,00,6.60
2011,03,03,11,01,6.50
2011,03,03,11,02,6.40
2011,03,03,11,03,6.30
2011,03,03,11,04,6.30
2011,03,03,11,05,6.20
2011,03,03,11,06,6.10
2011,03,03,11,07,6.10
2011,03,03,11,08,6.00
2011,03,03,11,09,6.00
2011,03,03,11,10,6.00
2011,03,03,11,11,6.00
2011,03,03,11,12,6.00
2011,03,03,11,13,6.00
2011,03,03,11,14,6.10
2011,03,03,11,15,6.10
2011,03,03,11,16,6.10
2011,03,03,11,17,6.10
2011,03,03,11,18,6.10
2011,03,03,11,19,6.00
2011,03,03,11,20,6.00
2011,03,03,11,21,5.90
2011,03,03,11,22,5.80
2011,03,03,11,23,5.80
2011,03,03,11,24,5.80
2011,03,03,11,25,5.90
2011,03,03,11,26,5.90
2011,03,03,11,27,5.90
2011,03,03,11,28,5.90
2011,03,03,11,29,5.90
2011,03,03,11,30,5.90
2011,03,03,11,31,5.90
2011,03,03,11,32,5.90
2011,03,03,11,33,5.80
2011,03,03,11,34,5.80
2011,03,03,11,35,5.80
2011,03,03,11,36,5.80
2011,03,03,11,37,5.90
2011,03,03,11,38,5.90
2011,03,03,11,39,5.90
2011,03,03,11,40,5.90
2011,03,03,11,41,5.90
2011,03,03,11,42,5.90
2011,03,03,11,43,6.00
2011,03,03,11,44,6.00
2011,03,03,11,45,6.00
2011,03,03,11,46,6.10
2011,03,03,11,47,6.10
2011,03,03,11,48,6.20
2011,03,03,11,49,6.20
2011,03,03,11,50,6.20
2011,03,03,11,51,6.20
2011,03,03,11,52,6.20
2011,03,03,11,53,6.20
2011,03,03,11,54,6.20
2011,03,03,11,55,6.20
2011,03,03,11,56,6.20
2011,03,03,11,57,6.20
2011,03,03,11,58,6.30
2011,03,03,11,59,6.30
2011,03,03,12,00,6.30
2011,03,03,12,01,6.20
2011,03,03,12,02,6.20
2011,03,03,12,03,6.20
2011,03,03,12,04,6.20
2011,03,03,12,05,6.30
2011,03,03,12,06,6.30
2011,03,03,12,07,6.20
2011,03,03,12,08,6.20
2011,03,03,12,09,6.20
2011,03,03,12,10,6.20
2011,03,03,12,11,6.10
2011,03,03,12,12,6.10
2011,03,03,12,13,6.10
2011,03,03,12,14,6.10
2011,03,03,12,15,6.10
2011,03,03,12,16,6.10
2011,03,03,12,17,6.20
2011,03,03,12,18,6.20
2011,03,03,12,19,6.20
2011,03,03,12,20,6.20
2011,03,03,12,21,6.10
2011,03,03,12,22,6.10
2011,03,03,12,23,6.10
2011,03,03,12,24,6.10
2011,03,03,12,25,6.00
2011,03,03,12,26,6.00
2011,03,03,12,27,6.00
2011,03,03,12,28,6.10
2011,03,03,12,29,6.10
2011,03,03,12,30,6.10
2011,03,03,12,31,6.10
2011,03,03,12,32,6.10
2011,03,03,12,33,6.10
2011,03,03,12,34,6.10
2011,03,03,12,35,6.10
2011,03,03,12,36,6.10
2011,03,03,12,37,6.10
2011,03,03,12,38,6.10
2011,03,03,12,39,6.00
2011,03,03,12,40,5.90
2011,03,03,12,41,5.90
2011,03,03,12,42,6.00
2011,03,03,12,43,6.10
2011,03,03,12,44,6.10
2011,03,03,12,45,6.10
2011,03,03,12,46,6.10
2011,03,03,12,47,6.00
2011,03,03,12,48,5.90
2011,03,03,12,49,5.90
2011,03,03,12,50,5.80
2011,03,03,12,51,5.80
2011,03,03,12,52,5.80
2011,03,03,12,53,5.70
2011,03,03,12,54,5.80
2011,03,03,12,55,5.80
2011,03,03,12,56,5.80
2011,03,03,12,57,5.80
2011,03,03,12,58,5.80
2011,03,03,12,59,5.80
2011,03,03,13,00,5.80
2011,03,03,13,01,5.80
2011,03,03,13,02,5.80
2011,03,03,13,03,5.90
2011,03,03,13,04,5.90
2011,03,03,13,05,5.80
2011,03,03,13,06,5.80
2011,03,03,13,07,5.80
2011,03,03,13,08,5.80
2011,03,03,13,09,5.80
2011,03,03,13,10,5.80
2011,03,03,13,11,5.90
2011,03,03,13,12,5.80
2011,03,03,13,13,5.80
2011,03,03,13,14,5.80
2011,03,03,13,15,5.80
2011,03,03,13,16,5.70
2011,03,03,13,17,5.70
2011,03,03,13,18,5.70
2011,03,03,13,19,5.60
2011,03,03,13,20,5.60
2011,03,03,13,21,5.60
2011,03,03,13,22,5.60
2011,03,03,13,23,5.60
2011,03,03,13,24,5.60
2011,03,03,13,25,5.60
2011,03,03,13,26,5.60
2011,03,03,13,27,5.60
2011,03,03,13,28,5.60
2011,03,03,13,29,5.60
2011,03,03,13,30,5.60
2011,03,03,13,31,5.60
2011,03,03,13,32,5.60
2011,03,03,13,33,5.60
2011,03,03,13,34,5.60
2011,03,03,13,35,5.70
2011,03,03,13,36,5.80
2011,03,03,13,37,5.80
2011,03,03,13,38,5.80
2011,03,03,13,39,5.80
2011,03,03,13,40,5.70
2011,03,03,13,41,5.70
2011,03,03,13,42,5.70
2011,03,03,13,43,5.70
2011,03,03,13,44,5.80
2011,03,03,13,45,5.80
2011,03,03,13,46,5.80
2011,03,03,13,47,5.80
2011,03,03,13,48,5.80
2011,03,03,13,49,5.80
2011,03,03,13,50,5.80
2011,03,03,13,51,5.90
2011,03,03,13,52,5.90
2011,03,03,13,53,5.90
2011,03,03,13,54,5.90
2011,03,03,13,55,5.90
2011,03,03,13,56,5.90
2011,03,03,13,57,5.90
2011,03,03,13,58,5.80
2011,03,03,13,59,5.90
2011,03,03,14,00,5.90
2011,03,03,14,01,5.90
2011,03,03,14,02,5.90
2011,03,03,14,03,5.90
2011,03,03,14,04,5.90
2011,03,03,14,05,5.90
2011,03,03,14,06,5.90
2011,03,03,14,07,5.90
2011,03,03,14,08,6.00
2011,03,03,14,09,6.00
2011,03,03,14,10,6.10
2011,03,03,14,11,6.10
2011,03,03,14,12,6.20
2011,03,03,14,13,6.20
2011,03,03,14,14,6.10
2011,03,03,14,15,6.10
2011,03,03,14,16,6.00
2011,03,03,14,17,6.00
2011,03,03,14,18,6.00
2011,03,03,14,19,5.90
2011,03,03,14,20,5.90
2011,03,03,14,21,5.90
2011,03,03,14,22,5.90
2011,03,03,14,23,5.90
2011,03,03,14,24,6.00
2011,03,03,14,25,6.00
2011,03,03,14,26,6.00
2011,03,03,14,27,6.00
2011,03,03,14,28,6.00
2011,03,03,14,29,6.00
2011,03,03,14,30,6.00
2011,03,03,14,31,5.90
2011,03,03,14,32,5.90
2011,03,03,14,33,5.90
2011,03,03,14,34,5.90
2011,03,03,14,35,5.90
2011,03,03,14,36,5.90
2011,03,03,14,37,5.80
2011,03,03,14,38,5.80
2011,03,03,14,39,5.80
2011,03,03,14,40,5.80
2011,03,03,14,41,5.80
2011,03,03,14,42,5.80
2011,03,03,14,43,5.80
2011,03,03,14,44,5.80
2011,03,03,14,45,5.80
2011,03,03,14,46,5.90
2011,03,03,14,47,5.90
2011,03,03,14,48,5.90
2011,03,03,14,49,5.90
2011,03,03,14,50,5.90
2011,03,03,14,51,5.90
2011,03,03,14,52,5.90
2011,03,03,14,53,5.90
2011,03,03,14,54,5.90
2011,03,03,14,55,5.90
2011,03,03,14,56,5.90
2011,03,03,14,57,5.90
2011,03,03,14,58,5.90
2011,03,03,14,59,5.90
2011,03,03,15,00,5.90
2011,03,03,15,01,5.90
2011,03,03,15,02,5.90
2011,03,03,15,03,5.90
2011,03,03,15,04,5.90
2011,03,03,15,05,5.90
2011,03,03,15,06,5.90
2011,03,03,15,07,5.90
2011,03,03,15,08,5.90
2011,03,03,15,09,5.90
2011,03,03,15,10,5.90
2011,03,03,15,11,5.90
2011,03,03,15,12,5.90
2011,03,03,15,13,5.90
2011,03,03,15,14,5.90
2011,03,03,15,15,5.90
2011,03,03,15,16,5.90
2011,03,03,15,17,5.90
2011,03,03,15,18,5.90
2011,03,03,15,19,5.90
2011,03,03,15,20,5.90
2011,03,03,15,21,5.80
2011,03,03,15,22,5.80
2011,03,03,15,23,5.70
2011,03,03,15,24,5.60
2011,03,03,15,25,5.50
2011,03,03,15,26,5.40
2011,03,03,15,27,5.40
2011,03,03,15,28,5.30
2011,03,03,15,29,5.10
2011,03,03,15,30,5.00
2011,03,03,15,31,4.80
2011,03,03,15,32,4.70
2011,03,03,15,33,4.60
2011,03,03,15,34,4.50
2011,03,03,15,35,4.40
2011,03,03,15,36,4.30
2011,03,03,15,37,4.20
2011,03,03,15,38,4.00
2011,03,03,15,39,3.90
2011,03,03,15,40,3.80
2011,03,03,15,41,3.70
2011,03,03,15,42,3.60
2011,03,03,15,43,3.50
2011,03,03,15,44,3.40
2011,03,03,15,45,3.30
2011,03,03,15,46,3.30
2011,03,03,15,47,3.20
2011,03,03,15,48,3.20
2011,03,03,15,49,3.20
2011,03,03,15,50,3.20
2011,03,03,15,51,3.00
2011,03,03,15,52,2.90
2011,03,03,15,53,2.80
2011,03,03,15,54,2.70
2011,03,03,15,55,2.60
2011,03,03,15,56,2.50
2011,03,03,15,57,2.40
2011,03,03,15,58,2.30
2011,03,03,15,59,2.10
2011,03,03,16,00,2.00
2011,03,03,16,01,1.90
2011,03,03,16,02,1.80
2011,03,03,16,03,1.80
2011,03,03,16,04,1.80
2011,03,03,16,05,1.70
2011,03,03,16,06,1.70
2011,03,03,16,07,1.70
2011,03,03,16,08,1.70
2011,03,03,16,09,1.70
2011,03,03,16,10,1.70
2011,03,03,16,11,1.70
2011,03,03,16,12,1.70
2011,03,03,16,13,1.80
2011,03,03,16,14,1.80
2011,03,03,16,15,1.80
2011,03,03,16,16,1.80
2011,03,03,16,17,1.80
2011,03,03,16,18,1.90
2011,03,03,16,19,1.90
2011,03,03,16,20,1.90
2011,03,03,16,21,1.90
2011,03,03,16,22,2.00
2011,03,03,16,23,2.00
2011,03,03,16,24,2.00
2011,03,03,16,25,2.00
2011,03,03,16,26,2.10
2011,03,03,16,27,2.10
2011,03,03,16,28,2.10
2011,03,03,16,29,2.10
2011,03,03,16,30,2.10
2011,03,03,16,31,2.10
2011,03,03,16,32,2.20
2011,03,03,16,33,2.20
2011,03,03,16,34,2.20
2011,03,03,16,35,2.20
2011,03,03,16,36,2.20
2011,03,03,16,37,2.20
2011,03,03,16,38,2.30
2011,03,03,16,39,2.30
2011,03,03,16,40,2.30
2011,03,03,16,41,2.30
2011,03,03,16,42,2.30
2011,03,03,16,43,2.30
2011,03,03,16,44,2.30
2011,03,03,16,45,2.30
2011,03,03,16,46,2.30
2011,03,03,16,47,2.40
2011,03,03,16,48,2.40
2011,03,03,16,49,2.40
2011,03,03,16,50,2.50
2011,03,03,16,51,2.50
2011,03,03,16,52,2.50
2011,03,03,16,53,2.50
2011,03,03,16,54,2.50
2011,03,03,16,55,2.50
2011,03,03,16,56,2.40
2011,03,03,16,57,2.40
2011,03,03,16,58,2.40
2011,03,03,16,59,2.40
2011,03,03,17,00,2.50
2011,03,03,17,01,2.50
2011,03,03,17,02,2.50
2011,03,03,17,03,2.50
2011,03,03,17,04,2.50
2011,03,03,17,05,2.50
2011,03,03,17,06,2.50
2011,03,03,17,07,2.50
2011,03,03,17,08,2.40
2011,03,03,17,09,2.40
2011,03,03,17,10,2.40
2011,03,03,17,11,2.40
2011,03,03,17,12,2.30
2011,03,03,17,13,2.30
2011,03,03,17,14,2.30
2011,03,03,17,15,2.30
2011,03,03,17,16,2.30
2011,03,03,17,17,2.30
2011,03,03,17,18,2.30
2011,03,03,17,19,2.30
2011,03,03,17,20,2.30
2011,03,03,17,21,2.20
2011,03,03,17,22,2.20
2011,03,03,17,23,2.20
2011,03,03,17,24,2.20
2011,03,03,17,25,2.20
2011,03,03,17,26,2.20
2011,03,03,17,27,2.30
2011,03,03,17,28,2.30
2011,03,03,17,29,2.30
2011,03,03,17,30,2.30
2011,03,03,17,31,2.30
2011,03,03,17,32,2.30
2011,03,03,17,33,2.30
2011,03,03,17,34,2.40
2011,03,03,17,35,2.40
2011,03,03,17,36,2.40
2011,03,03,17,37,2.40
2011,03,03,17,38,2.30
2011,03,03,17,39,2.30
2011,03,03,17,40,2.30
2011,03,03,17,41,2.30
2011,03,03,17,42,2.20
2011,03,03,17,43,2.10
2011,03,03,17,44,2.10
2011,03,03,17,45,2.10
2011,03,03,17,46,2.00
2011,03,03,17,47,2.00
2011,03,03,17,48,2.00
2011,03,03,17,49,1.90
2011,03,03,17,50,1.90
2011,03,03,17,51,1.90
2011,03,03,17,52,1.90
2011,03,03,17,53,1.90
2011,03,03,17,54,1.80
2011,03,03,17,55,1.80
2011,03,03,17,56,1.80
2011,03,03,17,57,1.80
2011,03,03,17,58,1.80
2011,03,03,17,59,1.80
2011,03,03,18,00,1.80
2011,03,03,18,01,1.80
2011,03,03,18,02,1.80
2011,03,03,18,03,1.80
2011,03,03,18,04,1.80
2011,03,03,18,05,1.80
2011,03,03,18,06,1.80
2011,03,03,18,07,1.70
2011,03,03,18,08,1.70
2011,03,03,18,09,1.70
2011,03,03,18,10,1.70
2011,03,03,18,11,1.70
2011,03,03,18,12,1.70
2011,03,03,18,13,1.70
2011,03,03,18,14,1.70
2011,03,03,18,15,1.70
2011,03,03,18,16,1.70
2011,03,03,18,17,1.70
2011,03,03,18,18,1.70
2011,03,03,18,19,1.70
2011,03,03,18,20,1.70
2011,03,03,18,21,1.80
2011,03,03,18,22,1.80
2011,03,03,18,23,1.80
2011,03,03,18,24,1.80
2011,03,03,18,25,1.80
2011,03,03,18,26,1.90
2011,03,03,18,27,1.90
2011,03,03,18,28,2.00
2011,03,03,18,29,2.00
2011,03,03,18,30,2.00
2011,03,03,18,31,2.10
2011,03,03,18,32,2.10
2011,03,03,18,33,2.10
2011,03,03,18,34,2.10
2011,03,03,18,35,2.10
2011,03,03,18,36,2.10
2011,03,03,18,37,2.10
2011,03,03,18,38,2.10
2011,03,03,18,39,2.10
2011,03,03,18,40,2.10
2011,03,03,18,41,2.10
2011,03,03,18,42,2.10
2011,03,03,18,43,2.10
2011,03,03,18,44,2.10
2011,03,03,18,45,2.10
2011,03,03,18,46,2.10
2011,03,03,18,47,2.10
2011,03,03,18,48,2.10
2011,03,03,18,49,2.10
2011,03,03,18,50,2.10
2011,03,03,18,51,2.20
2011,03,03,18,52,2.20
2011,03,03,18,53,2.20
2011,03,03,18,54,2.20
2011,03,03,18,55,2.20
2011,03,03,18,56,2.10
2011,03,03,18,57,2.10
2011,03,03,18,58,2.10
2011,03,03,18,59,2.10
2011,03,03,19,00,2.10
2011,03,03,19,01,2.10
2011,03,03,19,02,2.10
2011,03,03,19,03,2.10
2011,03,03,19,04,2.00
2011,03,03,19,05,2.00
2011,03,03,19,06,1.90
2011,03,03,19,07,1.90
2011,03,03,19,08,1.90
2011,03,03,19,09,1.80
2011,03,03,19,10,1.80
2011,03,03,19,11,1.80
2011,03,03,19,12,1.70
2011,03,03,19,13,1.70
2011,03,03,19,14,1.70
2011,03,03,19,15,1.70
2011,03,03,19,16,1.60
2011,03,03,19,17,1.60
2011,03,03,19,18,1.60
2011,03,03,19,19,1.60
2011,03,03,19,20,1.50
2011,03,03,19,21,1.50
2011,03,03,19,22,1.50
2011,03,03,19,23,1.40
2011,03,03,19,24,1.40
2011,03,03,19,25,1.40
2011,03,03,19,26,1.40
2011,03,03,19,27,1.40
2011,03,03,19,28,1.30
2011,03,03,19,29,1.40
2011,03,03,19,30,1.40
2011,03,03,19,31,1.40
2011,03,03,19,32,1.40
2011,03,03,19,33,1.40
2011,03,03,19,34,1.50
2011,03,03,19,35,1.60
2011,03,03,19,36,1.60
2011,03,03,19,37,1.70
2011,03,03,19,38,1.80
2011,03,03,19,39,1.80
2011,03,03,19,40,1.90
2011,03,03,19,41,2.00
2011,03,03,19,42,2.10
2011,03,03,19,43,2.10
2011,03,03,19,44,2.10
2011,03,03,19,45,2.20
2011,03,03,19,46,2.20
2011,03,03,19,47,2.20
2011,03,03,19,48,2.20
2011,03,03,19,49,2.20
2011,03,03,19,50,2.30
2011,03,03,19,51,2.30
2011,03,03,19,52,2.30
2011,03,03,19,53,2.30
2011,03,03,19,54,2.30
2011,03,03,19,55,2.30
2011,03,03,19,56,2.40
2011,03,03,19,57,2.40
2011,03,03,19,58,2.40
2011,03,03,19,59,2.40
2011,03,03,20,00,2.40
2011,03,03,20,01,2.40
2011,03,03,20,02,2.40
2011,03,03,20,03,2.40
2011,03,03,20,04,2.40
2011,03,03,20,05,2.40
2011,03,03,20,06,2.40
2011,03,03,20,07,2.40
2011,03,03,20,08,2.40
2011,03,03,20,09,2.40
2011,03,03,20,10,2.40
2011,03,03,20,11,2.40
2011,03,03,20,12,2.50
2011,03,03,20,13,2.50
2011,03,03,20,14,2.50
2011,03,03,20,15,2.50
2011,03,03,20,16,2.50
2011,03,03,20,17,2.50
2011,03,03,20,18,2.50
2011,03,03,20,19,2.50
2011,03,03,20,20,2.50
2011,03,03,20,21,2.60
2011,03,03,20,22,2.60
2011,03,03,20,23,2.60
2011,03,03,20,24,2.50
2011,03,03,20,25,2.50
2011,03,03,20,26,2.50
2011,03,03,20,27,2.50
2011,03,03,20,28,2.50
2011,03,03,20,29,2.50
2011,03,03,20,30,2.50
2011,03,03,20,31,2.50
2011,03,03,20,32,2.50
2011,03,03,20,33,2.50
2011,03,03,20,34,2.50
2011,03,03,20,35,2.50
2011,03,03,20,36,2.50
2011,03,03,20,37,2.50
2011,03,03,20,38,2.50
2011,03,03,20,39,2.50
2011,03,03,20,40,2.40
2011,03,03,20,41,2.40
2011,03,03,20,42,2.40
2011,03,03,20,43,2.40
2011,03,03,20,44,2.40
2011,03,03,20,45,2.50
2011,03,03,20,46,2.50
2011,03,03,20,47,2.50
2011,03,03,20,48,2.50
2011,03,03,20,49,2.60
2011,03,03,20,50,2.60
2011,03,03,20,51,2.60
2011,03,03,20,52,2.60
2011,03,03,20,53,2.70
2011,03,03,20,54,2.70
2011,03,03,20,55,2.70
2011,03,03,20,56,2.70
2011,03,03,20,57,2.70
2011,03,03,20,58,2.70
2011,03,03,20,59,2.70
2011,03,03,21,00,2.70
2011,03,03,21,01,2.60
2011,03,03,21,02,2.60
2011,03,03,21,03,2.60
2011,03,03,21,04,2.60
2011,03,03,21,05,2.50
2011,03,03,21,06,2.50
2011,03,03,21,07,2.50
2011,03,03,21,08,2.50
2011,03,03,21,09,2.40
2011,03,03,21,10,2.40
2011,03,03,21,11,2.40
2011,03,03,21,12,2.40
2011,03,03,21,13,2.40
2011,03,03,21,14,2.40
2011,03,03,21,15,2.40
2011,03,03,21,16,2.40
2011,03,03,21,17,2.30
2011,03,03,21,18,2.30
2011,03,03,21,19,2.30
2011,03,03,21,20,2.30
2011,03,03,21,21,2.30
2011,03,03,21,22,2.30
2011,03,03,21,23,2.30
2011,03,03,21,24,2.30
2011,03,03,21,25,2.30
2011,03,03,21,26,2.30
2011,03,03,21,27,2.20
2011,03,03,21,28,2.20
2011,03,03,21,29,2.20
2011,03,03,21,30,2.20
2011,03,03,21,31,2.10
2011,03,03,21,32,2.10
2011,03,03,21,33,2.10
2011,03,03,21,34,2.10
2011,03,03,21,35,2.10
2011,03,03,21,36,2.10
2011,03,03,21,37,2.10
2011,03,03,21,38,2.10
2011,03,03,21,39,2.10
2011,03,03,21,40,2.20
2011,03,03,21,41,2.20
2011,03,03,21,42,2.20
2011,03,03,21,43,2.20
2011,03,03,21,44,2.20
2011,03,03,21,45,2.20
2011,03,03,21,46,2.20
2011,03,03,21,47,2.20
2011,03,03,21,48,2.20
2011,03,03,21,49,2.20
2011,03,03,21,50,2.20
2011,03,03,21,51,2.20
2011,03,03,21,52,2.30
2011,03,03,21,53,2.30
2011,03,03,21,54,2.30
2011,03,03,21,55,2.30
2011,03,03,21,56,2.30
2011,03,03,21,57,2.30
2011,03,03,21,58,2.30
2011,03,03,21,59,2.30
2011,03,03,22,00,2.30
2011,03,03,22,01,2.30
2011,03,03,22,02,2.40
2011,03,03,22,03,2.40
2011,03,03,22,04,2.40
2011,03,03,22,05,2.40
2011,03,03,22,06,2.40
2011,03,03,22,07,2.40
2011,03,03,22,08,2.40
2011,03,03,22,09,2.40
2011,03,03,22,10,2.40
2011,03,03,22,11,2.40
2011,03,03,22,12,2.40
2011,03,03,22,13,2.40
2011,03,03,22,14,2.40
2011,03,03,22,15,2.40
2011,03,03,22,16,2.40
2011,03,03,22,17,2.50
2011,03,03,22,18,2.50
2011,03,03,22,19,2.50
2011,03,03,22,20,2.50
2011,03,03,22,21,2.50
2011,03,03,22,22,2.50
2011,03,03,22,23,2.60
2011,03,03,22,24,2.60
2011,03,03,22,25,2.60
2011,03,03,22,26,2.60
2011,03,03,22,27,2.60
2011,03,03,22,28,2.60
2011,03,03,22,29,2.60
2011,03,03,22,30,2.60
2011,03,03,22,31,2.60
2011,03,03,22,32,2.60
2011,03,03,22,33,2.70
2011,03,03,22,34,2.70
2011,03,03,22,35,2.70
2011,03,03,22,36,2.70
2011,03,03,22,37,2.70
2011,03,03,22,38,2.70
2011,03,03,22,39,2.60
2011,03,03,22,40,2.60
2011,03,03,22,41,2.50
2011,03,03,22,42,2.40
2011,03,03,22,43,2.40
2011,03,03,22,44,2.40
2011,03,03,22,45,2.50
2011,03,03,22,46,2.60
2011,03,03,22,47,2.60
2011,03,03,22,48,2.70
2011,03,03,22,49,2.70
2011,03,03,22,50,2.60
2011,03,03,22,51,2.60
2011,03,03,22,52,2.60
2011,03,03,22,53,2.50
2011,03,03,22,54,2.50
2011,03,03,22,55,2.50
2011,03,03,22,56,2.50
2011,03,03,22,57,2.50
2011,03,03,22,58,2.50
2011,03,03,22,59,2.60
2011,03,03,23,00,2.60
2011,03,03,23,01,2.60
2011,03,03,23,02,2.60
2011,03,03,23,03,2.50
2011,03,03,23,04,2.50
2011,03,03,23,05,2.40
2011,03,03,23,06,2.40
2011,03,03,23,07,2.40
2011,03,03,23,08,2.40
2011,03,03,23,09,2.40
2011,03,03,23,10,2.40
2011,03,03,23,11,2.30
2011,03,03,23,12,2.30
2011,03,03,23,13,2.30
2011,03,03,23,14,2.30
2011,03,03,23,15,2.30
2011,03,03,23,16,2.30
2011,03,03,23,17,2.30
2011,03,03,23,18,2.30
2011,03,03,23,19,2.30
2011,03,03,23,20,2.30
2011,03,03,23,21,2.30
2011,03,03,23,22,2.30
2011,03,03,23,23,2.30
2011,03,03,23,24,2.30
2011,03,03,23,25,2.30
2011,03,03,23,26,2.30
2011,03,03,23,27,2.30
2011,03,03,23,28,2.30
2011,03,03,23,29,2.20
2011,03,03,23,30,2.20
2011,03,03,23,31,2.20
2011,03,03,23,32,2.20
2011,03,03,23,33,2.20
2011,03,03,23,34,2.10
2011,03,03,23,35,2.10
2011,03,03,23,36,2.10
2011,03,03,23,37,2.00
2011,03,03,23,38,2.00
2011,03,03,23,39,1.90
2011,03,03,23,40,1.90
2011,03,03,23,41,1.90
2011,03,03,23,42,1.90
2011,03,03,23,43,1.80
2011,03,03,23,44,1.80
2011,03,03,23,45,1.80
2011,03,03,23,46,1.80
2011,03,03,23,47,1.80
2011,03,03,23,48,1.80
2011,03,03,23,49,1.80
2011,03,03,23,50,1.70
2011,03,03,23,51,1.70
2011,03,03,23,52,1.70
2011,03,03,23,53,1.70
2011,03,03,23,54,1.70
2011,03,03,23,55,1.70
2011,03,03,23,56,1.70
2011,03,03,23,57,1.70
2011,03,03,23,58,1.70
2011,03,03,23,59,1.70
